Alton, IL

4:40 PM CDT on July 24, 2017 (GMT -0500)
Saint Louis Regional

Weather History for KALN - November, 2013

Change the Weather History Date:

Monday, November 4, 2013

  Actual Average Record
Temperature  
Mean Temperature 51 °F -  
Max Temperature 57 °F 57 °F 80 °F (2003)
Min Temperature 45 °F 40 °F 33 °F (1998)
Degree Days  
Heating Degree Days 14    
Growing Degree Days 1 (Base 50)    
Moisture  
Dew Point 38 °F    
Average Humidity 62    
Maximum Humidity 67    
Minimum Humidity 51    
Precipitation  
Precipitation 0.00 in - - ()
Sea Level Pressure  
Sea Level Pressure 30.19 in    
Wind  
Wind Speed 10 mph (SSE)    
Max Wind Speed 23 mph    
Max Gust Speed 20 mph    
Visibility 10 miles    
Events      
Averages and records for this station are not official NWS values.
T = Trace of Precipitation, MM = Missing Value Source: NWS Daily Summary

Daily Weather History Graph

Daily Weather History Graph

Search for Another Location

Airport or City:

Trip Planner

Search our weather history database for the weather conditions in past years. The results will help you decide how hot, cold, wet, or windy it might be!

Date:

Astronomy

Nov. 04, 2013 Rise Set
Actual Time 6:30 AM CST 4:56 PM CST
Civil Twilight 6:03 AM CST 5:23 PM CST
Nautical Twilight 5:31 AM CST 5:55 PM CST
Astronomical Twilight 5:00 AM CST 6:26 PM CST
Moon 7:40 AM CST (11/4) 6:01 PM CST (11/4)
Length of Visible Light 11h 20m
Length of Day
10h 25m
New Moon, 2% of the Moon is Illuminated
Nov 4
New Moon
Nov 9
First Quarter
Nov 17
Full
Nov 25
Last Quarter
Dec 2
New

Hourly Weather History & Observations

Time (CST) Temp. Windchill Dew Point Humidity Pressure Visibility Wind Dir Wind Speed Gust Speed Precip Events Conditions
12:15 AM 46.6 °F - 33.3 °F 60% 30.18 in 10.0 mi SE 10.4 mph - N/A   Clear
12:35 AM 46.9 °F - 32.9 °F 58% 30.18 in 10.0 mi SE 10.4 mph - N/A   Clear
12:55 AM 46.8 °F - 32.9 °F 59% 30.19 in 10.0 mi SE 9.2 mph - N/A   Clear
1:15 AM 46.8 °F - 32.9 °F 59% 30.19 in 10.0 mi SE 9.2 mph - N/A   Clear
1:35 AM 46.4 °F 41.9 °F 33.4 °F 61% 30.19 in 10.0 mi SE 9.2 mph - N/A   Clear
1:55 AM 46.4 °F 41.1 °F 33.6 °F 61% 30.18 in 10.0 mi SE 11.5 mph - N/A   Clear
2:15 AM 46.4 °F 41.5 °F 34.2 °F 62% 30.17 in 10.0 mi SE 10.4 mph - N/A   Clear
2:35 AM 46.4 °F 41.9 °F 34.3 °F 63% 30.17 in 10.0 mi SE 9.2 mph - N/A   Clear
2:55 AM 45.9 °F 41.2 °F 34.7 °F 65% 30.16 in 10.0 mi SE 9.2 mph - N/A   Clear
3:15 AM 46.4 °F 41.5 °F 34.9 °F 64% 30.16 in 10.0 mi SE 10.4 mph - N/A   Clear
3:35 AM 46.4 °F 41.9 °F 35.1 °F 65% 30.18 in 10.0 mi SE 9.2 mph - N/A   Clear
3:55 AM 46.4 °F 41.9 °F 35.2 °F 65% 30.16 in 10.0 mi ESE 9.2 mph - N/A   Clear
4:15 AM 46.4 °F 40.7 °F 35.6 °F 66% 30.17 in 10.0 mi SE 12.7 mph - N/A   Clear
4:35 AM 46.4 °F 41.5 °F 35.6 °F 66% 30.17 in 10.0 mi ESE 10.4 mph - N/A   Clear
4:55 AM 46.6 °F - 35.6 °F 66% 30.18 in 10.0 mi SE 12.7 mph - N/A   Clear
5:15 AM 46.8 °F - 35.4 °F 65% 30.18 in 10.0 mi SE 11.5 mph 16.1 mph N/A   Clear
5:35 AM 46.6 °F - 35.2 °F 65% 30.18 in 10.0 mi SE 12.7 mph - N/A   Clear
5:55 AM 46.6 °F - 35.1 °F 64% 30.19 in 10.0 mi SE 10.4 mph - N/A   Clear
6:50 AM 46.4 °F 41.1 °F 35.6 °F 66% 30.19 in 10.0 mi SSE 11.5 mph - N/A   Mostly Cloudy
8:50 AM 48.2 °F - 35.6 °F 62% 30.18 in 10.0 mi SSE 12.7 mph 19.6 mph N/A   Overcast
9:50 AM 51.8 °F - 35.6 °F 54% 30.20 in 10.0 mi South 11.5 mph 19.6 mph N/A   Overcast
10:50 AM 51.8 °F - 35.6 °F 54% 30.18 in 10.0 mi South 13.8 mph 19.6 mph N/A   Overcast
11:50 AM 53.6 °F - 37.4 °F 54% 30.18 in 10.0 mi South 12.7 mph 19.6 mph N/A   Overcast
12:50 PM 55.4 °F - 37.4 °F 51% 30.16 in 10.0 mi South 13.8 mph - N/A   Overcast
1:50 PM 55.4 °F - 39.2 °F 54% 30.15 in 10.0 mi South 11.5 mph - N/A   Overcast
2:50 PM 55.4 °F - 39.2 °F 54% 30.12 in 10.0 mi South 23.0 mph - N/A   Mostly Cloudy
3:50 PM 57.2 °F - 41.0 °F 55% 30.15 in 10.0 mi South 13.8 mph - N/A   Scattered Clouds
4:50 PM 55.4 °F - 39.2 °F 54% 30.15 in 10.0 mi South 11.5 mph - N/A   Scattered Clouds
8:55 PM 53.6 °F - 42.8 °F 67% 30.23 in 10.0 mi SSE 9.2 mph - N/A   Scattered Clouds
9:15 PM 54.7 °F - 42.8 °F 64% 30.22 in 10.0 mi South 9.2 mph - N/A   Unknown
9:35 PM 54.5 °F - 42.8 °F 65% 30.23 in 10.0 mi SSE 8.1 mph - N/A   Unknown
9:55 PM 54.7 °F - 43.0 °F 65% 30.23 in 10.0 mi SSE 6.9 mph - N/A   Unknown
10:15 PM 54.5 °F - 43.2 °F 66% 30.23 in 10.0 mi SSE 8.1 mph - N/A   Unknown
10:35 PM 54.5 °F - 43.3 °F 66% 30.23 in 10.0 mi SSE 8.1 mph - N/A   Unknown
10:55 PM 54.5 °F - 43.3 °F 66% 30.23 in 10.0 mi South 8.1 mph - N/A   Unknown
11:15 PM 54.5 °F - 43.2 °F 66% 30.23 in 10.0 mi SSE 5.8 mph - N/A   Unknown
11:35 PM 54.5 °F - 43.2 °F 66% 30.24 in 10.0 mi SSE 4.6 mph - N/A   Unknown
11:55 PM 54.5 °F - 43.3 °F 66% 30.24 in 10.0 mi SSE 5.8 mph - N/A   Unknown